SL-14 DEB, 45301

Orbit data source: Space-Track

SL-14 DEB, 45301 is space debris in LEO originally from a launch on Thu, 15 Aug 1991 UTC launched from the Plesetsk Missile And Space Complex (PKMTR). Debris objects in space refer to the collection of defunct objects orbiting the Earth. Examples of debris include non-operational satellites, rocket bodies, and fragments generated from explosions, collisions, or faulty payload assembly.

Loading next visibility...
SL-14 DEB details
Identifier
45301, 1991-056AP
Orbit
LEO
Last TLE update21 hours ago
Origin
Flag of CISRosgidromet (CIS)
ManufacturerUnknown
MissionSpacecraft
Bus & MotorUnknown
MassUnknown
Launch date (UTC)
1991-08-15 (33 years ago)
Launch vehicleUnknown
Launch site
Plesetsk Missile And Space Complex (PKMTR)
Object type
Payload
Rocket body
Debris
Shape & HBRUnknown
Radar Cross SectionMedium (>0.1 m² and <1 m²)

Expand to show TLE details & history

TLE from 21 hours ago
0 SL-14 DEB
1 45301U 91056AP  24360.57921898  .00003045  00000-0  39228-2 0  9996
2 45301  82.4929  74.6213 0151961  54.4713 307.0494 13.57531164239747
Epoch: 2024-12-25T13:54Z
Definitive object data (Epoch: 2024-12-25T13:54:04.519Z)
Latitude-0.00009°
Longitude131.53152°
Altitude980.674 km
Speed7.394 km/s
True Right ascension04h 58m 29s
True Declination0° 00' 00"
Sunlit
Object was in full shadow at TLE epoch
Visualization TLE readout
Latitude-62.96005°
Longitude-34.24152°
Altitude1,179.221 km
Speed7.209 km/s
Apparent Right ascension20h 17m 42s
Apparent Declination-55° 59' 56"
Sunlit
Object is in daylight
Visualization observer readout
Local Sidereal Time09:54:15
Azimuth143.441° SSE
Elevation-67.422°
Doppler factor1
Orbital elements
Apogee altitude1,154.623 km
Perigee altitude929.113 km
Semi-major axis7,420.005 km
Eccentricity0.0151961
Inclination82.4929°
RAAN74.6213°
Arg. of periapsis54.4713°
True anomaly305.64366°
Mean anomaly307.0494°
Eccentric anomaly306.34813°
Mean motion3.39576 °/min
BSTAR0.0039228
Orbital period106.01 mins
Loading maneuver chart data...
Loading historical data...
Loading historical data...
Loading historical data...
Loading historical data...
Loading historical data...
Loading historical data...
Loading historical data...

SL-14 DEB Visibility forecast

Observer location: undefined°, undefined

Span
Click to sort rows by Start time (UTC) header in descending order
Start Az.
Max El. time (UTC)
Max El. Az.
Max El.
End time (UTC)
End Az.
5 mins2024-12-26 15:16:03.363Z41.831° NE2024-12-26 15:18:03.363Z60.819° ENE12.805°2024-12-26 15:21:03.363Z89.276° E
11 mins2024-12-26 17:01:03.363Z352.988° N2024-12-26 17:06:03.363Z10.328° NNE44.868°2024-12-26 17:12:03.363Z173.411° S
8 mins2024-12-27 04:57:03.363Z136.556° SSE2024-12-27 05:00:03.363Z94.66° ESE27.689°2024-12-27 05:05:03.363Z30.37° NE
9 mins2024-12-27 06:43:03.363Z228.796° WSW2024-12-27 06:47:03.363Z282.21° WNW28.716°2024-12-27 06:52:03.363Z346.461° N
|